sat.trackr.live / text

‹ back to catalog

ONEWEB-0355

NORAD 49218 · 2021-083AJ

PAYLOAD ACTIVE UNKNOWN

§ Identity

Operator
Country
UK
Launch date
2021-09-14
Launch site
TYMSC
Launch vehicle
Mass (kg)
RCS (m²)

Purposes: comms

External: N2YO · Heavens-Above · Gunter

§ Orbital elements

Epoch: 2026-09-19T21:29:54.947040Z

Period
109.63 min
Inclination
87.8917°
Eccentricity
0.0001645
Mean motion
13.13469102 rev/d
Perigee alt
1,208.5 km
Apogee alt
1,211.0 km
Semi-major
7,587.9 km
B*
-2.4184e-4
RAAN
301.3881°
Arg perigee
93.2107°
Mean anomaly
266.9210°
Rev number
24,333

§ Raw data

ONEWEB-03551 49218U 21083AJ  26262.89577485 -.00000076  00000+0 -24184-3 0  99952 49218  87.8917 301.3881 0001645  93.2107 266.9210 13.13469102243339

JSON: /api/v1/satellites/49218 · /tle

For live sub-satellite position, see the globe view (requires WebGL).

§ Visibility from observer

Set your observer location to see the next 7 days of passes ≥ 10°. The values pass through the URL so the page stays shareable.

No JS? Fill the form by hand. The geolocation button needs JavaScript.